Flag for U.S.A. Weather past 2 weeks in Sunnyvale, California, U.S.A.

Now
61 °F

Clear.


Feels Like: 61 °F
Forecast: 58 / 79 °F
Wind: No wind

Location: Moffett Field

Current Time: Aug 27, 2014 at 6:49:49 AM

Latest Report: Aug 27, 2014 at 5:56 AM


Visibility: 10 mi

Pressure: 30.05 "Hg

Humidity: 83%

Dew point: 56 °F

Location of SunnyvaleLocation

Historic Weather in Sunnyvale — Graph

°F

Sunnyvale temperature yesterday

Maximum temperature yesterday: 75 °F (at 4:56 PM)
Minimum temperature yesterday: 59 °F (at 5:56 AM)
Average temperature yesterday: 67 °F

Past Weeks' High & Low Weather Summary

 TemperatureHumidityPressure
High78 °F (Aug 20, 1:56 PM)87% (Aug 14, 10:56 PM)30.06 "Hg (Aug 14, 10:56 PM)
Low59 °F (Aug 26, 5:56 AM)46% (Aug 20, 1:56 PM)29.80 "Hg (Aug 19, 4:56 PM)
Average67 °F71%29.94 "Hg
* Reported Aug 12 4:56 AM — Aug 27 4:56 AM, Sunnyvale, Weather by CustomWeather, © 2014

Note: Actual official high and low records may vary slightly from our data, if they occured in-between our weather recording intervals... More about our weather records

Advertising

Sunnyvale weather history for previous 24 hours

 ConditionsComfort  
Time TempWeatherWind HumidityBarometerVisibility
4:56 AM
Aug 27
62 °FClear.No wind80%30.03 "Hg10 mi
3:56 AM63 °FClear.No wind81%30.03 "Hg10 mi
2:56 AM64 °FClear.No wind81%30.03 "Hg10 mi
1:56 AM64 °FClear.No wind78%30.02 "Hg10 mi
12:56 AM64 °FClear.3 mph81%30.02 "Hg10 mi
11:56 PM
Aug 26
64 °FClear.3 mph78%30.02 "Hg10 mi
10:56 PM65 °FClear.3 mph78%30.02 "Hg10 mi
9:56 PM66 °FClear.9 mph75%30.01 "Hg10 mi
8:56 PM67 °FClear.10 mph73%29.99 "Hg10 mi
7:56 PM69 °FSunny.10 mph68%29.97 "Hg10 mi
6:56 PM71 °FSunny.9 mph63%29.95 "Hg10 mi
5:56 PM74 °FSunny.13 mph56%29.95 "Hg10 mi
4:56 PM75 °FSunny.16 mph52%29.94 "Hg10 mi
3:56 PM74 °FSunny.13 mph56%29.95 "Hg10 mi
2:56 PM74 °FSunny.13 mph56%29.97 "Hg10 mi
1:56 PM74 °FSunny.13 mph53%29.99 "Hg10 mi
12:56 PM73 °FSunny.8 mph55%30.01 "Hg10 mi
11:56 AM71 °FSunny.8 mph57%30.02 "Hg10 mi
10:56 AM69 °FSunny.6 mph61%30.03 "Hg10 mi
9:56 AM67 °FSunny.No wind63%30.03 "Hg10 mi
8:56 AM64 °FOvercast.No wind70%30.03 "Hg10 mi
7:56 AM63 °FOvercast.3 mph75%30.02 "Hg10 mi
6:56 AM59 °FClear.No wind78%30.01 "Hg10 mi
Weather by CustomWeather, © 2014

See weather overviewHow to use our weather pages